Showing default

TIANPING 1B, 43714

Orbit data source: Space-Track

TIANPING 1B, 43714 is a payload satellite owned by Guoxing (CN) in SSO that was launched on Mon, 19 Nov 2018 UTC via a CHANG ZHENG 2D launch vehicle from the Jiuquan Satellite Launch Center, China (JSC). Payload-class satellites include a variety of spacecraft equipped with specific instruments for various scientific and technological missions. These include communications satellites like Starlink; space stations such as the ISS; scientific satellites like the Hubble; Earth observation satellites from companies like Planet Labs, Umbra, and HawkEye 360; GPS; miniature CubeSats for education and research; and military/defense satellites.

Loading next visibility...
Identifier
43714, 2018-094E
Orbit
SSO
Last TLE update
5 hours ago
Origin
Manufacturer
DFH Shenzhen
Mission
Operational Commercial Calibration
Bus & Motor
PINA, Unknown motor
Mass
10 kg wet, ~10 kg dry
Launch date (UTC)
2018-11-19 (6 years ago)
Launch vehicle
CHANG ZHENG 2D
Launch site
Jiuquan Satellite Launch Center, China (JSC)
Object type
Payload
Rocket body
Debris
Shape & HBR
Box + 2 Pan, 0.5 m
Radar Cross Section
0.048 m², Medium (>0.1 m² and < 1m²)

Expand to show TLE details & history

TLE from 5 hours ago
0 TIANPING 1B
1 43714U 18094E   25129.49510382  .00045413  00000-0  42489-3 0  9999
2 43714  97.3273 161.3516 0007447 144.0300 216.1463 15.67101163361339
Epoch: 2025-05-09T11:52Z
Definitive object data (Epoch: 2025-05-09T11:52:56.97Z)
Latitude
-0.00003°
Longitude
115.5638°
Altitude
374.417 km
Speed
7.683 km/s
True Right ascension
10h 45m 24s
True Declination
0° 00' 00"
Sunlit
Object was in full shadow at TLE epoch
Visualization TLE readout
Latitude
3.59019°
Longitude
115.30456°
Altitude
373.741 km
Speed
7.683 km/s
Apparent Right ascension
11h 32m 56s
Apparent Declination
-17° 56' 17"
Sunlit
Object is in full shadow
Visualization observer readout
Local Sidereal Time
00:40:12
Azimuth
38.332° NE
Elevation
-63.652°
Doppler factor
1
Orbital elements
Apogee altitude
369.123 km
Perigee altitude
359.082 km
Semi-major axis
6,742.24 km
Eccentricity
0.0007447
Inclination
97.3273°
RAAN
161.3516°
Arg. of periapsis
144.03°
True anomaly
216.096°
Mean anomaly
216.1463°
Eccentric anomaly
216.12115°
Mean motion
3.92046 °/min
BSTAR
0.00042489
Orbital period
91.83 mins
Loading maneuver chart data...
Loading SW <> Apogee altitude chart data...
Loading historical data...
Loading historical data...
Loading historical data...
Loading historical data...
Loading historical data...
Loading historical data...
Loading historical data...

TIANPING 1B Visibility forecast

Observer location: undefined°, undefined°

Span
Click to sort rows by Start time (UTC) header in descending order
Start Az.
Max El. time (UTC)
Max El. Az.
Max El.
End time (UTC)
End Az.
4 mins2025-05-10 01:48:43.191Z141.515° SSE2025-05-10 01:50:43.191Z90.838° ESE31.14°2025-05-10 01:52:43.191Z13.78° NNE
|